Index of /20260508/WXO-DD/model_rdps/10km/06/066
Name Last modified Size Description
Parent Directory -
20260508T06Z_MSC_RDPS_AbsoluteVorticity_IsbL-0250_RLatLon0.09_PT066H.grib2 2026-05-08 08:59 614K
20260508T06Z_MSC_RDPS_AbsoluteVorticity_IsbL-0500_RLatLon0.09_PT066H.grib2 2026-05-08 08:59 572K
20260508T06Z_MSC_RDPS_AbsoluteVorticity_IsbL-0700_RLatLon0.09_PT066H.grib2 2026-05-08 08:59 624K
20260508T06Z_MSC_RDPS_AbsoluteVorticity_IsbL-0850_RLatLon0.09_PT066H.grib2 2026-05-08 08:59 773K
20260508T06Z_MSC_RDPS_AirTemp_AGL-120m_RLatLon0.09_PT066H.grib2 2026-05-08 08:59 374K
20260508T06Z_MSC_RDPS_AirTemp_AGL-2m_RLatLon0.09_PT066H.grib2 2026-05-08 08:59 624K
20260508T06Z_MSC_RDPS_AirTemp_AGL-40m_RLatLon0.09_PT066H.grib2 2026-05-08 08:59 384K
20260508T06Z_MSC_RDPS_AirTemp_AGL-80m_RLatLon0.09_PT066H.grib2 2026-05-08 08:59 378K
20260508T06Z_MSC_RDPS_AirTemp_IsbL-0001_RLatLon0.09_PT066H.grib2 2026-05-08 08:59 310K
20260508T06Z_MSC_RDPS_AirTemp_IsbL-0005_RLatLon0.09_PT066H.grib2 2026-05-08 08:59 381K
20260508T06Z_MSC_RDPS_AirTemp_IsbL-0010_RLatLon0.09_PT066H.grib2 2026-05-08 08:59 393K
20260508T06Z_MSC_RDPS_AirTemp_IsbL-0020_RLatLon0.09_PT066H.grib2 2026-05-08 08:59 319K
20260508T06Z_MSC_RDPS_AirTemp_IsbL-0030_RLatLon0.09_PT066H.grib2 2026-05-08 08:59 341K
20260508T06Z_MSC_RDPS_AirTemp_IsbL-0050_RLatLon0.09_PT066H.grib2 2026-05-08 08:59 310K
20260508T06Z_MSC_RDPS_AirTemp_IsbL-0100_RLatLon0.09_PT066H.grib2 2026-05-08 08:59 425K
20260508T06Z_MSC_RDPS_AirTemp_IsbL-0150_RLatLon0.09_PT066H.grib2 2026-05-08 08:59 409K
20260508T06Z_MSC_RDPS_AirTemp_IsbL-0175_RLatLon0.09_PT066H.grib2 2026-05-08 08:59 404K
20260508T06Z_MSC_RDPS_AirTemp_IsbL-0200_RLatLon0.09_PT066H.grib2 2026-05-08 08:59 409K
20260508T06Z_MSC_RDPS_AirTemp_IsbL-0225_RLatLon0.09_PT066H.grib2 2026-05-08 08:59 415K
20260508T06Z_MSC_RDPS_AirTemp_IsbL-0250_RLatLon0.09_PT066H.grib2 2026-05-08 08:59 427K
20260508T06Z_MSC_RDPS_AirTemp_IsbL-0275_RLatLon0.09_PT066H.grib2 2026-05-08 08:59 408K
20260508T06Z_MSC_RDPS_AirTemp_IsbL-0300_RLatLon0.09_PT066H.grib2 2026-05-08 08:59 437K
20260508T06Z_MSC_RDPS_AirTemp_IsbL-0350_RLatLon0.09_PT066H.grib2 2026-05-08 08:59 423K
20260508T06Z_MSC_RDPS_AirTemp_IsbL-0400_RLatLon0.09_PT066H.grib2 2026-05-08 08:59 426K
20260508T06Z_MSC_RDPS_AirTemp_IsbL-0450_RLatLon0.09_PT066H.grib2 2026-05-08 08:59 437K
20260508T06Z_MSC_RDPS_AirTemp_IsbL-0500_RLatLon0.09_PT066H.grib2 2026-05-08 08:59 450K
20260508T06Z_MSC_RDPS_AirTemp_IsbL-0550_RLatLon0.09_PT066H.grib2 2026-05-08 08:59 467K
20260508T06Z_MSC_RDPS_AirTemp_IsbL-0600_RLatLon0.09_PT066H.grib2 2026-05-08 08:59 486K
20260508T06Z_MSC_RDPS_AirTemp_IsbL-0650_RLatLon0.09_PT066H.grib2 2026-05-08 08:59 502K
20260508T06Z_MSC_RDPS_AirTemp_IsbL-0700_RLatLon0.09_PT066H.grib2 2026-05-08 08:59 526K
20260508T06Z_MSC_RDPS_AirTemp_IsbL-0750_RLatLon0.09_PT066H.grib2 2026-05-08 08:59 522K
20260508T06Z_MSC_RDPS_AirTemp_IsbL-0800_RLatLon0.09_PT066H.grib2 2026-05-08 08:59 570K
20260508T06Z_MSC_RDPS_AirTemp_IsbL-0850_RLatLon0.09_PT066H.grib2 2026-05-08 08:59 500K
20260508T06Z_MSC_RDPS_AirTemp_IsbL-0875_RLatLon0.09_PT066H.grib2 2026-05-08 08:59 516K
20260508T06Z_MSC_RDPS_AirTemp_IsbL-0900_RLatLon0.09_PT066H.grib2 2026-05-08 08:59 520K
20260508T06Z_MSC_RDPS_AirTemp_IsbL-0925_RLatLon0.09_PT066H.grib2 2026-05-08 08:59 522K
20260508T06Z_MSC_RDPS_AirTemp_IsbL-0950_RLatLon0.09_PT066H.grib2 2026-05-08 08:59 523K
20260508T06Z_MSC_RDPS_AirTemp_IsbL-0970_RLatLon0.09_PT066H.grib2 2026-05-08 08:59 519K
20260508T06Z_MSC_RDPS_AirTemp_IsbL-0985_RLatLon0.09_PT066H.grib2 2026-05-08 08:59 509K
20260508T06Z_MSC_RDPS_AirTemp_IsbL-1000_RLatLon0.09_PT066H.grib2 2026-05-08 08:59 495K
20260508T06Z_MSC_RDPS_AirTemp_IsbL-1015_RLatLon0.09_PT066H.grib2 2026-05-08 08:59 498K
20260508T06Z_MSC_RDPS_Albedo_Sfc_RLatLon0.09_PT066H.grib2 2026-05-08 08:59 155K
20260508T06Z_MSC_RDPS_CAPE_Sfc_RLatLon0.09_PT066H.grib2 2026-05-08 08:59 1.9M
20260508T06Z_MSC_RDPS_CIN_Sfc_RLatLon0.09_PT066H.grib2 2026-05-08 08:59 1.4M
20260508T06Z_MSC_RDPS_CloudWater_EAtm_RLatLon0.09_PT066H.grib2 2026-05-08 08:59 229K
20260508T06Z_MSC_RDPS_ConvectivePrecip-Accum_Sfc_RLatLon0.09_PT066H.grib2 2026-05-08 08:59 1.3M
20260508T06Z_MSC_RDPS_DewPointDepression_AGL-2m_RLatLon0.09_PT066H.grib2 2026-05-08 08:59 408K
20260508T06Z_MSC_RDPS_DewPointDepression_IsbL-0001_RLatLon0.09_PT066H.grib2 2026-05-08 08:59 193
20260508T06Z_MSC_RDPS_DewPointDepression_IsbL-0005_RLatLon0.09_PT066H.grib2 2026-05-08 08:59 193
20260508T06Z_MSC_RDPS_DewPointDepression_IsbL-0010_RLatLon0.09_PT066H.grib2 2026-05-08 08:59 193
20260508T06Z_MSC_RDPS_DewPointDepression_IsbL-0020_RLatLon0.09_PT066H.grib2 2026-05-08 08:59 193
20260508T06Z_MSC_RDPS_DewPointDepression_IsbL-0030_RLatLon0.09_PT066H.grib2 2026-05-08 08:59 193
20260508T06Z_MSC_RDPS_DewPointDepression_IsbL-0050_RLatLon0.09_PT066H.grib2 2026-05-08 08:59 105K
20260508T06Z_MSC_RDPS_DewPointDepression_IsbL-0100_RLatLon0.09_PT066H.grib2 2026-05-08 08:59 110K
20260508T06Z_MSC_RDPS_DewPointDepression_IsbL-0150_RLatLon0.09_PT066H.grib2 2026-05-08 08:59 149K
20260508T06Z_MSC_RDPS_DewPointDepression_IsbL-0175_RLatLon0.09_PT066H.grib2 2026-05-08 08:59 171K
20260508T06Z_MSC_RDPS_DewPointDepression_IsbL-0200_RLatLon0.09_PT066H.grib2 2026-05-08 08:59 217K
20260508T06Z_MSC_RDPS_DewPointDepression_IsbL-0225_RLatLon0.09_PT066H.grib2 2026-05-08 08:59 267K
20260508T06Z_MSC_RDPS_DewPointDepression_IsbL-0250_RLatLon0.09_PT066H.grib2 2026-05-08 08:59 308K
20260508T06Z_MSC_RDPS_DewPointDepression_IsbL-0275_RLatLon0.09_PT066H.grib2 2026-05-08 08:59 315K
20260508T06Z_MSC_RDPS_DewPointDepression_IsbL-0300_RLatLon0.09_PT066H.grib2 2026-05-08 08:59 330K
20260508T06Z_MSC_RDPS_DewPointDepression_IsbL-0350_RLatLon0.09_PT066H.grib2 2026-05-08 08:59 336K
20260508T06Z_MSC_RDPS_DewPointDepression_IsbL-0400_RLatLon0.09_PT066H.grib2 2026-05-08 08:59 347K
20260508T06Z_MSC_RDPS_DewPointDepression_IsbL-0450_RLatLon0.09_PT066H.grib2 2026-05-08 08:59 357K
20260508T06Z_MSC_RDPS_DewPointDepression_IsbL-0500_RLatLon0.09_PT066H.grib2 2026-05-08 08:59 361K
20260508T06Z_MSC_RDPS_DewPointDepression_IsbL-0550_RLatLon0.09_PT066H.grib2 2026-05-08 08:59 372K
20260508T06Z_MSC_RDPS_DewPointDepression_IsbL-0600_RLatLon0.09_PT066H.grib2 2026-05-08 08:59 384K
20260508T06Z_MSC_RDPS_DewPointDepression_IsbL-0650_RLatLon0.09_PT066H.grib2 2026-05-08 08:59 393K
20260508T06Z_MSC_RDPS_DewPointDepression_IsbL-0700_RLatLon0.09_PT066H.grib2 2026-05-08 08:59 404K
20260508T06Z_MSC_RDPS_DewPointDepression_IsbL-0750_RLatLon0.09_PT066H.grib2 2026-05-08 08:59 417K
20260508T06Z_MSC_RDPS_DewPointDepression_IsbL-0800_RLatLon0.09_PT066H.grib2 2026-05-08 08:59 447K
20260508T06Z_MSC_RDPS_DewPointDepression_IsbL-0850_RLatLon0.09_PT066H.grib2 2026-05-08 08:59 467K
20260508T06Z_MSC_RDPS_DewPointDepression_IsbL-0875_RLatLon0.09_PT066H.grib2 2026-05-08 08:59 461K
20260508T06Z_MSC_RDPS_DewPointDepression_IsbL-0900_RLatLon0.09_PT066H.grib2 2026-05-08 08:59 449K
20260508T06Z_MSC_RDPS_DewPointDepression_IsbL-0925_RLatLon0.09_PT066H.grib2 2026-05-08 08:59 441K
20260508T06Z_MSC_RDPS_DewPointDepression_IsbL-0950_RLatLon0.09_PT066H.grib2 2026-05-08 08:59 436K
20260508T06Z_MSC_RDPS_DewPointDepression_IsbL-0970_RLatLon0.09_PT066H.grib2 2026-05-08 08:59 431K
20260508T06Z_MSC_RDPS_DewPointDepression_IsbL-0985_RLatLon0.09_PT066H.grib2 2026-05-08 08:59 426K
20260508T06Z_MSC_RDPS_DewPointDepression_IsbL-1000_RLatLon0.09_PT066H.grib2 2026-05-08 08:59 420K
20260508T06Z_MSC_RDPS_DewPointDepression_IsbL-1015_RLatLon0.09_PT066H.grib2 2026-05-08 08:59 409K
20260508T06Z_MSC_RDPS_DewPoint_AGL-2m_RLatLon0.09_PT066H.grib2 2026-05-08 08:59 392K
20260508T06Z_MSC_RDPS_DownwardLongwaveRadiationFlux-Accum_Sfc_RLatLon0.09_PT066H.grib2 2026-05-08 08:59 418K
20260508T06Z_MSC_RDPS_DownwardShortwaveRadiationFlux-Accum_NTAtm_RLatLon0.09_PT066H.grib2 2026-05-08 08:59 160K
20260508T06Z_MSC_RDPS_DownwardShortwaveRadiationFlux-Accum_Sfc_RLatLon0.09_PT066H.grib2 2026-05-08 08:59 627K
20260508T06Z_MSC_RDPS_FreezingRain-Accum12h_Sfc_RLatLon0.09_PT066H.grib2 2026-05-08 08:59 81K
20260508T06Z_MSC_RDPS_FreezingRain-Accum1h_Sfc_RLatLon0.09_PT066H.grib2 2026-05-08 08:59 29K
20260508T06Z_MSC_RDPS_FreezingRain-Accum24h_Sfc_RLatLon0.09_PT066H.grib2 2026-05-08 08:59 121K
20260508T06Z_MSC_RDPS_FreezingRain-Accum3h_Sfc_RLatLon0.09_PT066H.grib2 2026-05-08 08:59 32K
20260508T06Z_MSC_RDPS_FreezingRain-Accum6h_Sfc_RLatLon0.09_PT066H.grib2 2026-05-08 08:59 50K
20260508T06Z_MSC_RDPS_FreezingRain-Accum_Sfc_RLatLon0.09_PT066H.grib2 2026-05-08 08:59 168K
20260508T06Z_MSC_RDPS_GeopotentialHeight_IsbL-0001_RLatLon0.09_PT066H.grib2 2026-05-08 08:59 247K
20260508T06Z_MSC_RDPS_GeopotentialHeight_IsbL-0005_RLatLon0.09_PT066H.grib2 2026-05-08 08:59 308K
20260508T06Z_MSC_RDPS_GeopotentialHeight_IsbL-0010_RLatLon0.09_PT066H.grib2 2026-05-08 08:59 309K
20260508T06Z_MSC_RDPS_GeopotentialHeight_IsbL-0020_RLatLon0.09_PT066H.grib2 2026-05-08 08:59 310K
20260508T06Z_MSC_RDPS_GeopotentialHeight_IsbL-0030_RLatLon0.09_PT066H.grib2 2026-05-08 08:59 312K
20260508T06Z_MSC_RDPS_GeopotentialHeight_IsbL-0050_RLatLon0.09_PT066H.grib2 2026-05-08 08:59 311K
20260508T06Z_MSC_RDPS_GeopotentialHeight_IsbL-0100_RLatLon0.09_PT066H.grib2 2026-05-08 08:59 286K
20260508T06Z_MSC_RDPS_GeopotentialHeight_IsbL-0150_RLatLon0.09_PT066H.grib2 2026-05-08 08:59 229K
20260508T06Z_MSC_RDPS_GeopotentialHeight_IsbL-0175_RLatLon0.09_PT066H.grib2 2026-05-08 08:59 230K
20260508T06Z_MSC_RDPS_GeopotentialHeight_IsbL-0200_RLatLon0.09_PT066H.grib2 2026-05-08 08:59 231K
20260508T06Z_MSC_RDPS_GeopotentialHeight_IsbL-0225_RLatLon0.09_PT066H.grib2 2026-05-08 08:59 233K
20260508T06Z_MSC_RDPS_GeopotentialHeight_IsbL-0250_RLatLon0.09_PT066H.grib2 2026-05-08 08:59 235K
20260508T06Z_MSC_RDPS_GeopotentialHeight_IsbL-0275_RLatLon0.09_PT066H.grib2 2026-05-08 08:59 235K
20260508T06Z_MSC_RDPS_GeopotentialHeight_IsbL-0300_RLatLon0.09_PT066H.grib2 2026-05-08 08:59 235K
20260508T06Z_MSC_RDPS_GeopotentialHeight_IsbL-0350_RLatLon0.09_PT066H.grib2 2026-05-08 08:59 231K
20260508T06Z_MSC_RDPS_GeopotentialHeight_IsbL-0400_RLatLon0.09_PT066H.grib2 2026-05-08 08:59 227K
20260508T06Z_MSC_RDPS_GeopotentialHeight_IsbL-0450_RLatLon0.09_PT066H.grib2 2026-05-08 08:59 295K
20260508T06Z_MSC_RDPS_GeopotentialHeight_IsbL-0500_RLatLon0.09_PT066H.grib2 2026-05-08 08:59 290K
20260508T06Z_MSC_RDPS_GeopotentialHeight_IsbL-0550_RLatLon0.09_PT066H.grib2 2026-05-08 08:59 286K
20260508T06Z_MSC_RDPS_GeopotentialHeight_IsbL-0600_RLatLon0.09_PT066H.grib2 2026-05-08 08:59 284K
20260508T06Z_MSC_RDPS_GeopotentialHeight_IsbL-0650_RLatLon0.09_PT066H.grib2 2026-05-08 08:59 255K
20260508T06Z_MSC_RDPS_GeopotentialHeight_IsbL-0700_RLatLon0.09_PT066H.grib2 2026-05-08 08:59 254K
20260508T06Z_MSC_RDPS_GeopotentialHeight_IsbL-0750_RLatLon0.09_PT066H.grib2 2026-05-08 08:59 256K
20260508T06Z_MSC_RDPS_GeopotentialHeight_IsbL-0800_RLatLon0.09_PT066H.grib2 2026-05-08 08:59 344K
20260508T06Z_MSC_RDPS_GeopotentialHeight_IsbL-0850_RLatLon0.09_PT066H.grib2 2026-05-08 08:59 352K
20260508T06Z_MSC_RDPS_GeopotentialHeight_IsbL-0875_RLatLon0.09_PT066H.grib2 2026-05-08 08:59 354K
20260508T06Z_MSC_RDPS_GeopotentialHeight_IsbL-0900_RLatLon0.09_PT066H.grib2 2026-05-08 08:59 359K
20260508T06Z_MSC_RDPS_GeopotentialHeight_IsbL-0925_RLatLon0.09_PT066H.grib2 2026-05-08 08:59 361K
20260508T06Z_MSC_RDPS_GeopotentialHeight_IsbL-0950_RLatLon0.09_PT066H.grib2 2026-05-08 08:59 365K
20260508T06Z_MSC_RDPS_GeopotentialHeight_IsbL-0970_RLatLon0.09_PT066H.grib2 2026-05-08 08:59 371K
20260508T06Z_MSC_RDPS_GeopotentialHeight_IsbL-0985_RLatLon0.09_PT066H.grib2 2026-05-08 08:59 380K
20260508T06Z_MSC_RDPS_GeopotentialHeight_IsbL-1000_RLatLon0.09_PT066H.grib2 2026-05-08 08:59 392K
20260508T06Z_MSC_RDPS_GeopotentialHeight_IsbL-1015_RLatLon0.09_PT066H.grib2 2026-05-08 08:59 408K
20260508T06Z_MSC_RDPS_HighLowPressure_MSL_RLatLon0.09_PT066H.json 2026-05-08 08:51 19K
20260508T06Z_MSC_RDPS_Humidex_Sfc_RLatLon0.09_PT066H.grib2 2026-05-08 08:59 2.4M
20260508T06Z_MSC_RDPS_IcePellets-Accum12h_Sfc_RLatLon0.09_PT066H.grib2 2026-05-08 08:59 32K
20260508T06Z_MSC_RDPS_IcePellets-Accum1h_Sfc_RLatLon0.09_PT066H.grib2 2026-05-08 08:59 10K
20260508T06Z_MSC_RDPS_IcePellets-Accum24h_Sfc_RLatLon0.09_PT066H.grib2 2026-05-08 08:59 30K
20260508T06Z_MSC_RDPS_IcePellets-Accum3h_Sfc_RLatLon0.09_PT066H.grib2 2026-05-08 08:59 16K
20260508T06Z_MSC_RDPS_IcePellets-Accum6h_Sfc_RLatLon0.09_PT066H.grib2 2026-05-08 08:59 25K
20260508T06Z_MSC_RDPS_IcePellets-Accum_Sfc_RLatLon0.09_PT066H.grib2 2026-05-08 08:59 36K
20260508T06Z_MSC_RDPS_KIndex_Sfc_RLatLon0.09_PT066H.grib2 2026-05-08 08:59 2.5M
20260508T06Z_MSC_RDPS_LatentHeatNetFlux_Sfc_RLatLon0.09_PT066H.grib2 2026-05-08 08:59 370K
20260508T06Z_MSC_RDPS_LiftedIndex-MU-VT_IsbL-0500_RLatLon0.09_PT066H.grib2 2026-05-08 08:59 2.4M
20260508T06Z_MSC_RDPS_NetLongwaveRadiationFlux-Accum_Sfc_RLatLon0.09_PT066H.grib2 2026-05-08 08:59 602K
20260508T06Z_MSC_RDPS_NetShortwaveRadiationFlux-Accum_Sfc_RLatLon0.09_PT066H.grib2 2026-05-08 08:59 629K
20260508T06Z_MSC_RDPS_PlanetaryBoundaryLayerHeight_Sfc_RLatLon0.09_PT066H.grib2 2026-05-08 08:59 1.0M
20260508T06Z_MSC_RDPS_Precip-Accum12h_Sfc_RLatLon0.09_PT066H.grib2 2026-05-08 08:59 1.6M
20260508T06Z_MSC_RDPS_Precip-Accum1h_Sfc_RLatLon0.09_PT066H.grib2 2026-05-08 08:59 1.2M
20260508T06Z_MSC_RDPS_Precip-Accum24h_Sfc_RLatLon0.09_PT066H.grib2 2026-05-08 08:59 1.8M
20260508T06Z_MSC_RDPS_Precip-Accum3h_Sfc_RLatLon0.09_PT066H.grib2 2026-05-08 08:59 1.3M
20260508T06Z_MSC_RDPS_Precip-Accum6h_Sfc_RLatLon0.09_PT066H.grib2 2026-05-08 08:59 1.5M
20260508T06Z_MSC_RDPS_Precip-Accum_Sfc_RLatLon0.09_PT066H.grib2 2026-05-08 08:59 2.0M
20260508T06Z_MSC_RDPS_PrecipRate_Sfc_RLatLon0.09_PT066H.grib2 2026-05-08 08:59 173K
20260508T06Z_MSC_RDPS_PrecipType-Instant_Sfc_RLatLon0.09_PT066H.grib2 2026-05-08 08:59 609K
20260508T06Z_MSC_RDPS_Pressure-Trend3h_Sfc_RLatLon0.09_PT066H.grib2 2026-05-08 08:59 1.2M
20260508T06Z_MSC_RDPS_Pressure_MSL_RLatLon0.09_PT066H.grib2 2026-05-08 08:59 327K
20260508T06Z_MSC_RDPS_Pressure_PVU-1.5_RLatLon0.09_PT066H.grib2 2026-05-08 08:59 2.3M
20260508T06Z_MSC_RDPS_Pressure_PVU-1_RLatLon0.09_PT066H.grib2 2026-05-08 08:59 2.4M
20260508T06Z_MSC_RDPS_Pressure_PVU-2_RLatLon0.09_PT066H.grib2 2026-05-08 08:59 2.4M
20260508T06Z_MSC_RDPS_Pressure_Sfc_RLatLon0.09_PT066H.grib2 2026-05-08 08:59 497K
20260508T06Z_MSC_RDPS_RadiativeTemp_Sfc_RLatLon0.09_PT066H.grib2 2026-05-08 08:59 317K
20260508T06Z_MSC_RDPS_Rain-Accum12h_Sfc_RLatLon0.09_PT066H.grib2 2026-05-08 08:59 1.2M
20260508T06Z_MSC_RDPS_Rain-Accum1h_Sfc_RLatLon0.09_PT066H.grib2 2026-05-08 08:59 657K
20260508T06Z_MSC_RDPS_Rain-Accum24h_Sfc_RLatLon0.09_PT066H.grib2 2026-05-08 08:59 1.4M
20260508T06Z_MSC_RDPS_Rain-Accum3h_Sfc_RLatLon0.09_PT066H.grib2 2026-05-08 08:59 755K
20260508T06Z_MSC_RDPS_Rain-Accum6h_Sfc_RLatLon0.09_PT066H.grib2 2026-05-08 08:59 1.0M
20260508T06Z_MSC_RDPS_Rain-Accum_Sfc_RLatLon0.09_PT066H.grib2 2026-05-08 08:59 1.8M
20260508T06Z_MSC_RDPS_RelativeHumidity_AGL-2m_RLatLon0.09_PT066H.grib2 2026-05-08 08:59 1.0M
20260508T06Z_MSC_RDPS_RelativeHumidity_IsbL-0010_RLatLon0.09_PT066H.grib2 2026-05-08 08:59 554K
20260508T06Z_MSC_RDPS_RelativeHumidity_IsbL-0020_RLatLon0.09_PT066H.grib2 2026-05-08 08:59 626K
20260508T06Z_MSC_RDPS_RelativeHumidity_IsbL-0030_RLatLon0.09_PT066H.grib2 2026-05-08 08:59 621K
20260508T06Z_MSC_RDPS_RelativeHumidity_IsbL-0050_RLatLon0.09_PT066H.grib2 2026-05-08 08:59 352K
20260508T06Z_MSC_RDPS_RelativeHumidity_IsbL-0100_RLatLon0.09_PT066H.grib2 2026-05-08 08:59 274K
20260508T06Z_MSC_RDPS_RelativeHumidity_IsbL-0150_RLatLon0.09_PT066H.grib2 2026-05-08 08:59 421K
20260508T06Z_MSC_RDPS_RelativeHumidity_IsbL-0175_RLatLon0.09_PT066H.grib2 2026-05-08 08:59 478K
20260508T06Z_MSC_RDPS_RelativeHumidity_IsbL-0200_RLatLon0.09_PT066H.grib2 2026-05-08 08:59 548K
20260508T06Z_MSC_RDPS_RelativeHumidity_IsbL-0225_RLatLon0.09_PT066H.grib2 2026-05-08 08:59 626K
20260508T06Z_MSC_RDPS_RelativeHumidity_IsbL-0250_RLatLon0.09_PT066H.grib2 2026-05-08 08:59 707K
20260508T06Z_MSC_RDPS_RelativeHumidity_IsbL-0275_RLatLon0.09_PT066H.grib2 2026-05-08 08:59 733K
20260508T06Z_MSC_RDPS_RelativeHumidity_IsbL-0300_RLatLon0.09_PT066H.grib2 2026-05-08 08:59 769K
20260508T06Z_MSC_RDPS_RelativeHumidity_IsbL-0350_RLatLon0.09_PT066H.grib2 2026-05-08 08:59 783K
20260508T06Z_MSC_RDPS_RelativeHumidity_IsbL-0400_RLatLon0.09_PT066H.grib2 2026-05-08 08:59 800K
20260508T06Z_MSC_RDPS_RelativeHumidity_IsbL-0450_RLatLon0.09_PT066H.grib2 2026-05-08 08:59 812K
20260508T06Z_MSC_RDPS_RelativeHumidity_IsbL-0500_RLatLon0.09_PT066H.grib2 2026-05-08 08:59 819K
20260508T06Z_MSC_RDPS_RelativeHumidity_IsbL-0550_RLatLon0.09_PT066H.grib2 2026-05-08 08:59 833K
20260508T06Z_MSC_RDPS_RelativeHumidity_IsbL-0600_RLatLon0.09_PT066H.grib2 2026-05-08 08:59 852K
20260508T06Z_MSC_RDPS_RelativeHumidity_IsbL-0650_RLatLon0.09_PT066H.grib2 2026-05-08 08:59 870K
20260508T06Z_MSC_RDPS_RelativeHumidity_IsbL-0700_RLatLon0.09_PT066H.grib2 2026-05-08 08:59 903K
20260508T06Z_MSC_RDPS_RelativeHumidity_IsbL-0750_RLatLon0.09_PT066H.grib2 2026-05-08 08:59 935K
20260508T06Z_MSC_RDPS_RelativeHumidity_IsbL-0800_RLatLon0.09_PT066H.grib2 2026-05-08 08:59 1.0M
20260508T06Z_MSC_RDPS_RelativeHumidity_IsbL-0850_RLatLon0.09_PT066H.grib2 2026-05-08 08:59 1.0M
20260508T06Z_MSC_RDPS_RelativeHumidity_IsbL-0875_RLatLon0.09_PT066H.grib2 2026-05-08 08:59 1.0M
20260508T06Z_MSC_RDPS_RelativeHumidity_IsbL-0900_RLatLon0.09_PT066H.grib2 2026-05-08 08:59 1.0M
20260508T06Z_MSC_RDPS_RelativeHumidity_IsbL-0925_RLatLon0.09_PT066H.grib2 2026-05-08 08:59 1.0M
20260508T06Z_MSC_RDPS_RelativeHumidity_IsbL-0950_RLatLon0.09_PT066H.grib2 2026-05-08 08:59 1.0M
20260508T06Z_MSC_RDPS_RelativeHumidity_IsbL-0970_RLatLon0.09_PT066H.grib2 2026-05-08 08:59 1.0M
20260508T06Z_MSC_RDPS_RelativeHumidity_IsbL-0985_RLatLon0.09_PT066H.grib2 2026-05-08 08:59 1.0M
20260508T06Z_MSC_RDPS_RelativeHumidity_IsbL-1000_RLatLon0.09_PT066H.grib2 2026-05-08 08:59 1.0M
20260508T06Z_MSC_RDPS_RelativeHumidity_IsbL-1015_RLatLon0.09_PT066H.grib2 2026-05-08 08:59 1.0M
20260508T06Z_MSC_RDPS_Runoff-Accum_Sfc_RLatLon0.09_PT066H.grib2 2026-05-08 08:59 45K
20260508T06Z_MSC_RDPS_SWEATIndex_Sfc_RLatLon0.09_PT066H.grib2 2026-05-08 08:59 2.5M
20260508T06Z_MSC_RDPS_SeeingIndex_EAtm_RLatLon0.09_PT066H.grib2 2026-05-08 08:59 1.0M
20260508T06Z_MSC_RDPS_SensibleHeatNetFlux_Sfc_RLatLon0.09_PT066H.grib2 2026-05-08 08:59 319K
20260508T06Z_MSC_RDPS_ShowalterIndex_IsbL-0500_RLatLon0.09_PT066H.grib2 2026-05-08 08:59 2.6M
20260508T06Z_MSC_RDPS_SkyTransparencyIndex_EAtm_RLatLon0.09_PT066H.grib2 2026-05-08 08:59 706K
20260508T06Z_MSC_RDPS_Snow-Accum12h_Sfc_RLatLon0.09_PT066H.grib2 2026-05-08 08:59 536K
20260508T06Z_MSC_RDPS_Snow-Accum1h_Sfc_RLatLon0.09_PT066H.grib2 2026-05-08 08:59 409K
20260508T06Z_MSC_RDPS_Snow-Accum24h_Sfc_RLatLon0.09_PT066H.grib2 2026-05-08 08:59 558K
20260508T06Z_MSC_RDPS_Snow-Accum3h_Sfc_RLatLon0.09_PT066H.grib2 2026-05-08 08:59 413K
20260508T06Z_MSC_RDPS_Snow-Accum6h_Sfc_RLatLon0.09_PT066H.grib2 2026-05-08 08:59 505K
20260508T06Z_MSC_RDPS_Snow-Accum_Sfc_RLatLon0.09_PT066H.grib2 2026-05-08 08:59 672K
20260508T06Z_MSC_RDPS_SnowDensity_Sfc_RLatLon0.09_PT066H.grib2 2026-05-08 08:59 171K
20260508T06Z_MSC_RDPS_SnowDepth_Sfc_RLatLon0.09_PT066H.grib2 2026-05-08 08:59 618K
20260508T06Z_MSC_RDPS_SoilTemp_DBS-0to10cm_RLatLon0.09_PT066H.grib2 2026-05-08 08:59 246K
20260508T06Z_MSC_RDPS_SoilTemp_Sfc_RLatLon0.09_PT066H.grib2 2026-05-08 08:59 277K
20260508T06Z_MSC_RDPS_SoilVolumetricIceContent_Sfc_RLatLon0.09_PT066H.grib2 2026-05-08 08:59 142K
20260508T06Z_MSC_RDPS_SoilVolumetricWaterContent_DBS-0to10cm_RLatLon0.09_PT066H.grib2 2026-05-08 08:59 292K
20260508T06Z_MSC_RDPS_SoilVolumetricWaterContent_DBS-0to1cm_RLatLon0.09_PT066H.grib2 2026-05-08 08:59 343K
20260508T06Z_MSC_RDPS_SpecificHumidity_AGL-120m_RLatLon0.09_PT066H.grib2 2026-05-08 08:59 502K
20260508T06Z_MSC_RDPS_SpecificHumidity_AGL-2m_RLatLon0.09_PT066H.grib2 2026-05-08 08:59 675K
20260508T06Z_MSC_RDPS_SpecificHumidity_AGL-40m_RLatLon0.09_PT066H.grib2 2026-05-08 08:59 508K
20260508T06Z_MSC_RDPS_SpecificHumidity_AGL-80m_RLatLon0.09_PT066H.grib2 2026-05-08 08:59 503K
20260508T06Z_MSC_RDPS_SpecificHumidity_IsbL-0001_RLatLon0.09_PT066H.grib2 2026-05-08 08:59 362K
20260508T06Z_MSC_RDPS_SpecificHumidity_IsbL-0005_RLatLon0.09_PT066H.grib2 2026-05-08 08:59 363K
20260508T06Z_MSC_RDPS_SpecificHumidity_IsbL-0010_RLatLon0.09_PT066H.grib2 2026-05-08 08:59 390K
20260508T06Z_MSC_RDPS_SpecificHumidity_IsbL-0020_RLatLon0.09_PT066H.grib2 2026-05-08 08:59 489K
20260508T06Z_MSC_RDPS_SpecificHumidity_IsbL-0030_RLatLon0.09_PT066H.grib2 2026-05-08 08:59 367K
20260508T06Z_MSC_RDPS_SpecificHumidity_IsbL-0050_RLatLon0.09_PT066H.grib2 2026-05-08 08:59 367K
20260508T06Z_MSC_RDPS_SpecificHumidity_IsbL-0100_RLatLon0.09_PT066H.grib2 2026-05-08 08:59 334K
20260508T06Z_MSC_RDPS_SpecificHumidity_IsbL-0150_RLatLon0.09_PT066H.grib2 2026-05-08 08:59 485K
20260508T06Z_MSC_RDPS_SpecificHumidity_IsbL-0175_RLatLon0.09_PT066H.grib2 2026-05-08 08:59 440K
20260508T06Z_MSC_RDPS_SpecificHumidity_IsbL-0200_RLatLon0.09_PT066H.grib2 2026-05-08 08:59 475K
20260508T06Z_MSC_RDPS_SpecificHumidity_IsbL-0225_RLatLon0.09_PT066H.grib2 2026-05-08 08:59 470K
20260508T06Z_MSC_RDPS_SpecificHumidity_IsbL-0250_RLatLon0.09_PT066H.grib2 2026-05-08 08:59 538K
20260508T06Z_MSC_RDPS_SpecificHumidity_IsbL-0275_RLatLon0.09_PT066H.grib2 2026-05-08 08:59 495K
20260508T06Z_MSC_RDPS_SpecificHumidity_IsbL-0300_RLatLon0.09_PT066H.grib2 2026-05-08 08:59 464K
20260508T06Z_MSC_RDPS_SpecificHumidity_IsbL-0350_RLatLon0.09_PT066H.grib2 2026-05-08 08:59 455K
20260508T06Z_MSC_RDPS_SpecificHumidity_IsbL-0400_RLatLon0.09_PT066H.grib2 2026-05-08 08:59 540K
20260508T06Z_MSC_RDPS_SpecificHumidity_IsbL-0450_RLatLon0.09_PT066H.grib2 2026-05-08 08:59 599K
20260508T06Z_MSC_RDPS_SpecificHumidity_IsbL-0500_RLatLon0.09_PT066H.grib2 2026-05-08 08:59 536K
20260508T06Z_MSC_RDPS_SpecificHumidity_IsbL-0550_RLatLon0.09_PT066H.grib2 2026-05-08 08:59 608K
20260508T06Z_MSC_RDPS_SpecificHumidity_IsbL-0600_RLatLon0.09_PT066H.grib2 2026-05-08 08:59 662K
20260508T06Z_MSC_RDPS_SpecificHumidity_IsbL-0650_RLatLon0.09_PT066H.grib2 2026-05-08 08:59 582K
20260508T06Z_MSC_RDPS_SpecificHumidity_IsbL-0700_RLatLon0.09_PT066H.grib2 2026-05-08 08:59 629K
20260508T06Z_MSC_RDPS_SpecificHumidity_IsbL-0750_RLatLon0.09_PT066H.grib2 2026-05-08 08:59 679K
20260508T06Z_MSC_RDPS_SpecificHumidity_IsbL-0800_RLatLon0.09_PT066H.grib2 2026-05-08 08:59 760K
20260508T06Z_MSC_RDPS_SpecificHumidity_IsbL-0850_RLatLon0.09_PT066H.grib2 2026-05-08 08:59 823K
20260508T06Z_MSC_RDPS_SpecificHumidity_IsbL-0875_RLatLon0.09_PT066H.grib2 2026-05-08 08:59 843K
20260508T06Z_MSC_RDPS_SpecificHumidity_IsbL-0900_RLatLon0.09_PT066H.grib2 2026-05-08 08:59 712K
20260508T06Z_MSC_RDPS_SpecificHumidity_IsbL-0925_RLatLon0.09_PT066H.grib2 2026-05-08 08:59 717K
20260508T06Z_MSC_RDPS_SpecificHumidity_IsbL-0950_RLatLon0.09_PT066H.grib2 2026-05-08 08:59 721K
20260508T06Z_MSC_RDPS_SpecificHumidity_IsbL-0970_RLatLon0.09_PT066H.grib2 2026-05-08 08:59 717K
20260508T06Z_MSC_RDPS_SpecificHumidity_IsbL-0985_RLatLon0.09_PT066H.grib2 2026-05-08 08:59 708K
20260508T06Z_MSC_RDPS_SpecificHumidity_IsbL-1000_RLatLon0.09_PT066H.grib2 2026-05-08 08:59 701K
20260508T06Z_MSC_RDPS_SpecificHumidity_IsbL-1015_RLatLon0.09_PT066H.grib2 2026-05-08 08:59 690K
20260508T06Z_MSC_RDPS_SpecificHumidity_Sfc_RLatLon0.09_PT066H.grib2 2026-05-08 08:59 350K
20260508T06Z_MSC_RDPS_StormRelativeHelicity_EtaL-10000_RLatLon0.09_PT066H.grib2 2026-05-08 08:59 1.1M
20260508T06Z_MSC_RDPS_StormSeverityIndex_EtaL-10000_RLatLon0.09_PT066H.grib2 2026-05-08 08:59 1.1M
20260508T06Z_MSC_RDPS_Thickness_IsbL-0850to0700_RLatLon0.09_PT066H.grib2 2026-05-08 08:59 247K
20260508T06Z_MSC_RDPS_Thickness_IsbL-1000to0500_RLatLon0.09_PT066H.grib2 2026-05-08 08:59 194K
20260508T06Z_MSC_RDPS_Thickness_IsbL-1000to0850_RLatLon0.09_PT066H.grib2 2026-05-08 08:59 259K
20260508T06Z_MSC_RDPS_TotalCloudCover_Sfc_RLatLon0.09_PT066H.grib2 2026-05-08 08:59 668K
20260508T06Z_MSC_RDPS_TotalTotalsIndex_Sfc_RLatLon0.09_PT066H.grib2 2026-05-08 08:59 2.4M
20260508T06Z_MSC_RDPS_UVIndex-ClearSky_Sfc_RLatLon0.09_PT066H.grib2 2026-05-08 08:59 198K
20260508T06Z_MSC_RDPS_UVIndex_Sfc_RLatLon0.09_PT066H.grib2 2026-05-08 08:59 416K
20260508T06Z_MSC_RDPS_UpwardLongwaveRadiationFlux_NTAtm_RLatLon0.09_PT066H.grib2 2026-05-08 08:59 390K
20260508T06Z_MSC_RDPS_UpwardShortwaveRadiationFlux_NTAtm_RLatLon0.09_PT066H.grib2 2026-05-08 08:59 358K
20260508T06Z_MSC_RDPS_VerticalVelocity_IsbL-0250_RLatLon0.09_PT066H.grib2 2026-05-08 08:59 420K
20260508T06Z_MSC_RDPS_VerticalVelocity_IsbL-0500_RLatLon0.09_PT066H.grib2 2026-05-08 08:59 541K
20260508T06Z_MSC_RDPS_VerticalVelocity_IsbL-0700_RLatLon0.09_PT066H.grib2 2026-05-08 08:59 621K
20260508T06Z_MSC_RDPS_VerticalVelocity_IsbL-0850_RLatLon0.09_PT066H.grib2 2026-05-08 08:59 710K
20260508T06Z_MSC_RDPS_VerticalWindShear_EtaL-6500_RLatLon0.09_PT066H.grib2 2026-05-08 08:59 1.2M
20260508T06Z_MSC_RDPS_WindChill_Sfc_RLatLon0.09_PT066H.grib2 2026-05-08 08:59 1.2M
20260508T06Z_MSC_RDPS_WindDir_AGL-10m_RLatLon0.09_PT066H.grib2 2026-05-08 08:59 947K
20260508T06Z_MSC_RDPS_WindDir_AGL-120m_RLatLon0.09_PT066H.grib2 2026-05-08 08:59 598K
20260508T06Z_MSC_RDPS_WindDir_AGL-40m_RLatLon0.09_PT066H.grib2 2026-05-08 08:59 621K
20260508T06Z_MSC_RDPS_WindDir_AGL-80m_RLatLon0.09_PT066H.grib2 2026-05-08 08:59 607K
20260508T06Z_MSC_RDPS_WindDir_IsbL-0001_RLatLon0.09_PT066H.grib2 2026-05-08 08:59 283K
20260508T06Z_MSC_RDPS_WindDir_IsbL-0005_RLatLon0.09_PT066H.grib2 2026-05-08 08:59 360K
20260508T06Z_MSC_RDPS_WindDir_IsbL-0010_RLatLon0.09_PT066H.grib2 2026-05-08 08:59 403K
20260508T06Z_MSC_RDPS_WindDir_IsbL-0020_RLatLon0.09_PT066H.grib2 2026-05-08 08:59 441K
20260508T06Z_MSC_RDPS_WindDir_IsbL-0030_RLatLon0.09_PT066H.grib2 2026-05-08 08:59 437K
20260508T06Z_MSC_RDPS_WindDir_IsbL-0050_RLatLon0.09_PT066H.grib2 2026-05-08 08:59 426K
20260508T06Z_MSC_RDPS_WindDir_IsbL-0100_RLatLon0.09_PT066H.grib2 2026-05-08 08:59 418K
20260508T06Z_MSC_RDPS_WindDir_IsbL-0150_RLatLon0.09_PT066H.grib2 2026-05-08 08:59 421K
20260508T06Z_MSC_RDPS_WindDir_IsbL-0175_RLatLon0.09_PT066H.grib2 2026-05-08 08:59 441K
20260508T06Z_MSC_RDPS_WindDir_IsbL-0200_RLatLon0.09_PT066H.grib2 2026-05-08 08:59 462K
20260508T06Z_MSC_RDPS_WindDir_IsbL-0225_RLatLon0.09_PT066H.grib2 2026-05-08 08:59 469K
20260508T06Z_MSC_RDPS_WindDir_IsbL-0250_RLatLon0.09_PT066H.grib2 2026-05-08 08:59 468K
20260508T06Z_MSC_RDPS_WindDir_IsbL-0275_RLatLon0.09_PT066H.grib2 2026-05-08 08:59 492K
20260508T06Z_MSC_RDPS_WindDir_IsbL-0300_RLatLon0.09_PT066H.grib2 2026-05-08 08:59 489K
20260508T06Z_MSC_RDPS_WindDir_IsbL-0350_RLatLon0.09_PT066H.grib2 2026-05-08 08:59 509K
20260508T06Z_MSC_RDPS_WindDir_IsbL-0400_RLatLon0.09_PT066H.grib2 2026-05-08 08:59 530K
20260508T06Z_MSC_RDPS_WindDir_IsbL-0450_RLatLon0.09_PT066H.grib2 2026-05-08 08:59 549K
20260508T06Z_MSC_RDPS_WindDir_IsbL-0500_RLatLon0.09_PT066H.grib2 2026-05-08 08:59 571K
20260508T06Z_MSC_RDPS_WindDir_IsbL-0550_RLatLon0.09_PT066H.grib2 2026-05-08 08:59 579K
20260508T06Z_MSC_RDPS_WindDir_IsbL-0600_RLatLon0.09_PT066H.grib2 2026-05-08 08:59 604K
20260508T06Z_MSC_RDPS_WindDir_IsbL-0650_RLatLon0.09_PT066H.grib2 2026-05-08 08:59 640K
20260508T06Z_MSC_RDPS_WindDir_IsbL-0700_RLatLon0.09_PT066H.grib2 2026-05-08 08:59 682K
20260508T06Z_MSC_RDPS_WindDir_IsbL-0750_RLatLon0.09_PT066H.grib2 2026-05-08 08:59 725K
20260508T06Z_MSC_RDPS_WindDir_IsbL-0800_RLatLon0.09_PT066H.grib2 2026-05-08 08:59 791K
20260508T06Z_MSC_RDPS_WindDir_IsbL-0850_RLatLon0.09_PT066H.grib2 2026-05-08 08:59 855K
20260508T06Z_MSC_RDPS_WindDir_IsbL-0875_RLatLon0.09_PT066H.grib2 2026-05-08 08:59 876K
20260508T06Z_MSC_RDPS_WindDir_IsbL-0900_RLatLon0.09_PT066H.grib2 2026-05-08 08:59 889K
20260508T06Z_MSC_RDPS_WindDir_IsbL-0925_RLatLon0.09_PT066H.grib2 2026-05-08 08:59 897K
20260508T06Z_MSC_RDPS_WindDir_IsbL-0950_RLatLon0.09_PT066H.grib2 2026-05-08 08:59 900K
20260508T06Z_MSC_RDPS_WindDir_IsbL-0970_RLatLon0.09_PT066H.grib2 2026-05-08 08:59 900K
20260508T06Z_MSC_RDPS_WindDir_IsbL-0985_RLatLon0.09_PT066H.grib2 2026-05-08 08:59 910K
20260508T06Z_MSC_RDPS_WindDir_IsbL-1000_RLatLon0.09_PT066H.grib2 2026-05-08 08:59 927K
20260508T06Z_MSC_RDPS_WindDir_IsbL-1015_RLatLon0.09_PT066H.grib2 2026-05-08 08:59 941K
20260508T06Z_MSC_RDPS_WindGust-Max_AGL-10m_RLatLon0.09_PT066H.grib2 2026-05-08 08:59 1.0M
20260508T06Z_MSC_RDPS_WindGust-Min_AGL-10m_RLatLon0.09_PT066H.grib2 2026-05-08 08:59 1.0M
20260508T06Z_MSC_RDPS_WindGust_AGL-10m_RLatLon0.09_PT066H.grib2 2026-05-08 08:59 1.0M
20260508T06Z_MSC_RDPS_WindSpeed_AGL-10m_RLatLon0.09_PT066H.grib2 2026-05-08 08:59 835K
20260508T06Z_MSC_RDPS_WindSpeed_AGL-120m_RLatLon0.09_PT066H.grib2 2026-05-08 08:59 533K
20260508T06Z_MSC_RDPS_WindSpeed_AGL-40m_RLatLon0.09_PT066H.grib2 2026-05-08 08:59 667K
20260508T06Z_MSC_RDPS_WindSpeed_AGL-80m_RLatLon0.09_PT066H.grib2 2026-05-08 08:59 535K
20260508T06Z_MSC_RDPS_WindSpeed_IsbL-0001_RLatLon0.09_PT066H.grib2 2026-05-08 08:59 250K
20260508T06Z_MSC_RDPS_WindSpeed_IsbL-0005_RLatLon0.09_PT066H.grib2 2026-05-08 08:59 346K
20260508T06Z_MSC_RDPS_WindSpeed_IsbL-0010_RLatLon0.09_PT066H.grib2 2026-05-08 08:59 398K
20260508T06Z_MSC_RDPS_WindSpeed_IsbL-0020_RLatLon0.09_PT066H.grib2 2026-05-08 08:59 327K
20260508T06Z_MSC_RDPS_WindSpeed_IsbL-0030_RLatLon0.09_PT066H.grib2 2026-05-08 08:59 324K
20260508T06Z_MSC_RDPS_WindSpeed_IsbL-0050_RLatLon0.09_PT066H.grib2 2026-05-08 08:59 451K
20260508T06Z_MSC_RDPS_WindSpeed_IsbL-0100_RLatLon0.09_PT066H.grib2 2026-05-08 08:59 471K
20260508T06Z_MSC_RDPS_WindSpeed_IsbL-0150_RLatLon0.09_PT066H.grib2 2026-05-08 08:59 376K
20260508T06Z_MSC_RDPS_WindSpeed_IsbL-0175_RLatLon0.09_PT066H.grib2 2026-05-08 08:59 401K
20260508T06Z_MSC_RDPS_WindSpeed_IsbL-0200_RLatLon0.09_PT066H.grib2 2026-05-08 08:59 440K
20260508T06Z_MSC_RDPS_WindSpeed_IsbL-0225_RLatLon0.09_PT066H.grib2 2026-05-08 08:59 450K
20260508T06Z_MSC_RDPS_WindSpeed_IsbL-0250_RLatLon0.09_PT066H.grib2 2026-05-08 08:59 452K
20260508T06Z_MSC_RDPS_WindSpeed_IsbL-0275_RLatLon0.09_PT066H.grib2 2026-05-08 08:59 472K
20260508T06Z_MSC_RDPS_WindSpeed_IsbL-0300_RLatLon0.09_PT066H.grib2 2026-05-08 08:59 468K
20260508T06Z_MSC_RDPS_WindSpeed_IsbL-0350_RLatLon0.09_PT066H.grib2 2026-05-08 08:59 476K
20260508T06Z_MSC_RDPS_WindSpeed_IsbL-0400_RLatLon0.09_PT066H.grib2 2026-05-08 08:59 479K
20260508T06Z_MSC_RDPS_WindSpeed_IsbL-0450_RLatLon0.09_PT066H.grib2 2026-05-08 08:59 465K
20260508T06Z_MSC_RDPS_WindSpeed_IsbL-0500_RLatLon0.09_PT066H.grib2 2026-05-08 08:59 469K
20260508T06Z_MSC_RDPS_WindSpeed_IsbL-0550_RLatLon0.09_PT066H.grib2 2026-05-08 08:59 470K
20260508T06Z_MSC_RDPS_WindSpeed_IsbL-0600_RLatLon0.09_PT066H.grib2 2026-05-08 08:59 597K
20260508T06Z_MSC_RDPS_WindSpeed_IsbL-0650_RLatLon0.09_PT066H.grib2 2026-05-08 08:59 614K
20260508T06Z_MSC_RDPS_WindSpeed_IsbL-0700_RLatLon0.09_PT066H.grib2 2026-05-08 08:59 638K
20260508T06Z_MSC_RDPS_WindSpeed_IsbL-0750_RLatLon0.09_PT066H.grib2 2026-05-08 08:59 710K
20260508T06Z_MSC_RDPS_WindSpeed_IsbL-0800_RLatLon0.09_PT066H.grib2 2026-05-08 08:59 755K
20260508T06Z_MSC_RDPS_WindSpeed_IsbL-0850_RLatLon0.09_PT066H.grib2 2026-05-08 08:59 809K
20260508T06Z_MSC_RDPS_WindSpeed_IsbL-0875_RLatLon0.09_PT066H.grib2 2026-05-08 08:59 829K
20260508T06Z_MSC_RDPS_WindSpeed_IsbL-0900_RLatLon0.09_PT066H.grib2 2026-05-08 08:59 845K
20260508T06Z_MSC_RDPS_WindSpeed_IsbL-0925_RLatLon0.09_PT066H.grib2 2026-05-08 08:59 857K
20260508T06Z_MSC_RDPS_WindSpeed_IsbL-0950_RLatLon0.09_PT066H.grib2 2026-05-08 08:59 857K
20260508T06Z_MSC_RDPS_WindSpeed_IsbL-0970_RLatLon0.09_PT066H.grib2 2026-05-08 08:59 853K
20260508T06Z_MSC_RDPS_WindSpeed_IsbL-0985_RLatLon0.09_PT066H.grib2 2026-05-08 08:59 851K
20260508T06Z_MSC_RDPS_WindSpeed_IsbL-1000_RLatLon0.09_PT066H.grib2 2026-05-08 08:59 844K
20260508T06Z_MSC_RDPS_WindSpeed_IsbL-1015_RLatLon0.09_PT066H.grib2 2026-05-08 08:59 837K
20260508T06Z_MSC_RDPS_WindU_AGL-10m_RLatLon0.09_PT066H.grib2 2026-05-08 08:59 433K
20260508T06Z_MSC_RDPS_WindU_AGL-120m_RLatLon0.09_PT066H.grib2 2026-05-08 08:59 532K
20260508T06Z_MSC_RDPS_WindU_AGL-40m_RLatLon0.09_PT066H.grib2 2026-05-08 08:59 537K
20260508T06Z_MSC_RDPS_WindU_AGL-80m_RLatLon0.09_PT066H.grib2 2026-05-08 08:59 534K
20260508T06Z_MSC_RDPS_WindU_IsbL-0001_RLatLon0.09_PT066H.grib2 2026-05-08 08:59 293K
20260508T06Z_MSC_RDPS_WindU_IsbL-0005_RLatLon0.09_PT066H.grib2 2026-05-08 08:59 287K
20260508T06Z_MSC_RDPS_WindU_IsbL-0010_RLatLon0.09_PT066H.grib2 2026-05-08 08:59 298K
20260508T06Z_MSC_RDPS_WindU_IsbL-0020_RLatLon0.09_PT066H.grib2 2026-05-08 08:59 356K
20260508T06Z_MSC_RDPS_WindU_IsbL-0030_RLatLon0.09_PT066H.grib2 2026-05-08 08:59 315K
20260508T06Z_MSC_RDPS_WindU_IsbL-0050_RLatLon0.09_PT066H.grib2 2026-05-08 08:59 341K
20260508T06Z_MSC_RDPS_WindU_IsbL-0100_RLatLon0.09_PT066H.grib2 2026-05-08 08:59 427K
20260508T06Z_MSC_RDPS_WindU_IsbL-0150_RLatLon0.09_PT066H.grib2 2026-05-08 08:59 393K
20260508T06Z_MSC_RDPS_WindU_IsbL-0175_RLatLon0.09_PT066H.grib2 2026-05-08 08:59 415K
20260508T06Z_MSC_RDPS_WindU_IsbL-0200_RLatLon0.09_PT066H.grib2 2026-05-08 08:59 432K
20260508T06Z_MSC_RDPS_WindU_IsbL-0225_RLatLon0.09_PT066H.grib2 2026-05-08 08:59 442K
20260508T06Z_MSC_RDPS_WindU_IsbL-0250_RLatLon0.09_PT066H.grib2 2026-05-08 08:59 443K
20260508T06Z_MSC_RDPS_WindU_IsbL-0275_RLatLon0.09_PT066H.grib2 2026-05-08 08:59 359K
20260508T06Z_MSC_RDPS_WindU_IsbL-0300_RLatLon0.09_PT066H.grib2 2026-05-08 08:59 354K
20260508T06Z_MSC_RDPS_WindU_IsbL-0350_RLatLon0.09_PT066H.grib2 2026-05-08 08:59 463K
20260508T06Z_MSC_RDPS_WindU_IsbL-0400_RLatLon0.09_PT066H.grib2 2026-05-08 08:59 467K
20260508T06Z_MSC_RDPS_WindU_IsbL-0450_RLatLon0.09_PT066H.grib2 2026-05-08 08:59 471K
20260508T06Z_MSC_RDPS_WindU_IsbL-0500_RLatLon0.09_PT066H.grib2 2026-05-08 08:59 474K
20260508T06Z_MSC_RDPS_WindU_IsbL-0550_RLatLon0.09_PT066H.grib2 2026-05-08 08:59 476K
20260508T06Z_MSC_RDPS_WindU_IsbL-0600_RLatLon0.09_PT066H.grib2 2026-05-08 08:59 469K
20260508T06Z_MSC_RDPS_WindU_IsbL-0650_RLatLon0.09_PT066H.grib2 2026-05-08 08:59 486K
20260508T06Z_MSC_RDPS_WindU_IsbL-0700_RLatLon0.09_PT066H.grib2 2026-05-08 08:59 508K
20260508T06Z_MSC_RDPS_WindU_IsbL-0750_RLatLon0.09_PT066H.grib2 2026-05-08 08:59 533K
20260508T06Z_MSC_RDPS_WindU_IsbL-0800_RLatLon0.09_PT066H.grib2 2026-05-08 08:59 699K
20260508T06Z_MSC_RDPS_WindU_IsbL-0850_RLatLon0.09_PT066H.grib2 2026-05-08 08:59 618K
20260508T06Z_MSC_RDPS_WindU_IsbL-0875_RLatLon0.09_PT066H.grib2 2026-05-08 08:59 635K
20260508T06Z_MSC_RDPS_WindU_IsbL-0900_RLatLon0.09_PT066H.grib2 2026-05-08 08:59 647K
20260508T06Z_MSC_RDPS_WindU_IsbL-0925_RLatLon0.09_PT066H.grib2 2026-05-08 08:59 656K
20260508T06Z_MSC_RDPS_WindU_IsbL-0950_RLatLon0.09_PT066H.grib2 2026-05-08 08:59 795K
20260508T06Z_MSC_RDPS_WindU_IsbL-0970_RLatLon0.09_PT066H.grib2 2026-05-08 08:59 789K
20260508T06Z_MSC_RDPS_WindU_IsbL-0985_RLatLon0.09_PT066H.grib2 2026-05-08 08:59 787K
20260508T06Z_MSC_RDPS_WindU_IsbL-1000_RLatLon0.09_PT066H.grib2 2026-05-08 08:59 828K
20260508T06Z_MSC_RDPS_WindU_IsbL-1015_RLatLon0.09_PT066H.grib2 2026-05-08 08:59 822K
20260508T06Z_MSC_RDPS_WindV_AGL-10m_RLatLon0.09_PT066H.grib2 2026-05-08 08:59 429K
20260508T06Z_MSC_RDPS_WindV_AGL-120m_RLatLon0.09_PT066H.grib2 2026-05-08 08:59 528K
20260508T06Z_MSC_RDPS_WindV_AGL-40m_RLatLon0.09_PT066H.grib2 2026-05-08 08:59 531K
20260508T06Z_MSC_RDPS_WindV_AGL-80m_RLatLon0.09_PT066H.grib2 2026-05-08 08:59 529K
20260508T06Z_MSC_RDPS_WindV_IsbL-0001_RLatLon0.09_PT066H.grib2 2026-05-08 08:59 294K
20260508T06Z_MSC_RDPS_WindV_IsbL-0005_RLatLon0.09_PT066H.grib2 2026-05-08 08:59 287K
20260508T06Z_MSC_RDPS_WindV_IsbL-0010_RLatLon0.09_PT066H.grib2 2026-05-08 08:59 299K
20260508T06Z_MSC_RDPS_WindV_IsbL-0020_RLatLon0.09_PT066H.grib2 2026-05-08 08:59 318K
20260508T06Z_MSC_RDPS_WindV_IsbL-0030_RLatLon0.09_PT066H.grib2 2026-05-08 08:59 315K
20260508T06Z_MSC_RDPS_WindV_IsbL-0050_RLatLon0.09_PT066H.grib2 2026-05-08 08:59 339K
20260508T06Z_MSC_RDPS_WindV_IsbL-0100_RLatLon0.09_PT066H.grib2 2026-05-08 08:59 425K
20260508T06Z_MSC_RDPS_WindV_IsbL-0150_RLatLon0.09_PT066H.grib2 2026-05-08 08:59 366K
20260508T06Z_MSC_RDPS_WindV_IsbL-0175_RLatLon0.09_PT066H.grib2 2026-05-08 08:59 414K
20260508T06Z_MSC_RDPS_WindV_IsbL-0200_RLatLon0.09_PT066H.grib2 2026-05-08 08:59 334K
20260508T06Z_MSC_RDPS_WindV_IsbL-0225_RLatLon0.09_PT066H.grib2 2026-05-08 08:59 339K
20260508T06Z_MSC_RDPS_WindV_IsbL-0250_RLatLon0.09_PT066H.grib2 2026-05-08 08:59 366K
20260508T06Z_MSC_RDPS_WindV_IsbL-0275_RLatLon0.09_PT066H.grib2 2026-05-08 08:59 381K
20260508T06Z_MSC_RDPS_WindV_IsbL-0300_RLatLon0.09_PT066H.grib2 2026-05-08 08:59 377K
20260508T06Z_MSC_RDPS_WindV_IsbL-0350_RLatLon0.09_PT066H.grib2 2026-05-08 08:59 359K
20260508T06Z_MSC_RDPS_WindV_IsbL-0400_RLatLon0.09_PT066H.grib2 2026-05-08 08:59 361K
20260508T06Z_MSC_RDPS_WindV_IsbL-0450_RLatLon0.09_PT066H.grib2 2026-05-08 08:59 466K
20260508T06Z_MSC_RDPS_WindV_IsbL-0500_RLatLon0.09_PT066H.grib2 2026-05-08 08:59 471K
20260508T06Z_MSC_RDPS_WindV_IsbL-0550_RLatLon0.09_PT066H.grib2 2026-05-08 08:59 472K
20260508T06Z_MSC_RDPS_WindV_IsbL-0600_RLatLon0.09_PT066H.grib2 2026-05-08 08:59 481K
20260508T06Z_MSC_RDPS_WindV_IsbL-0650_RLatLon0.09_PT066H.grib2 2026-05-08 08:59 480K
20260508T06Z_MSC_RDPS_WindV_IsbL-0700_RLatLon0.09_PT066H.grib2 2026-05-08 08:59 502K
20260508T06Z_MSC_RDPS_WindV_IsbL-0750_RLatLon0.09_PT066H.grib2 2026-05-08 08:59 526K
20260508T06Z_MSC_RDPS_WindV_IsbL-0800_RLatLon0.09_PT066H.grib2 2026-05-08 08:59 564K
20260508T06Z_MSC_RDPS_WindV_IsbL-0850_RLatLon0.09_PT066H.grib2 2026-05-08 08:59 612K
20260508T06Z_MSC_RDPS_WindV_IsbL-0875_RLatLon0.09_PT066H.grib2 2026-05-08 08:59 629K
20260508T06Z_MSC_RDPS_WindV_IsbL-0900_RLatLon0.09_PT066H.grib2 2026-05-08 08:59 642K
20260508T06Z_MSC_RDPS_WindV_IsbL-0925_RLatLon0.09_PT066H.grib2 2026-05-08 08:59 651K
20260508T06Z_MSC_RDPS_WindV_IsbL-0950_RLatLon0.09_PT066H.grib2 2026-05-08 08:59 651K
20260508T06Z_MSC_RDPS_WindV_IsbL-0970_RLatLon0.09_PT066H.grib2 2026-05-08 08:59 786K
20260508T06Z_MSC_RDPS_WindV_IsbL-0985_RLatLon0.09_PT066H.grib2 2026-05-08 08:59 782K
20260508T06Z_MSC_RDPS_WindV_IsbL-1000_RLatLon0.09_PT066H.grib2 2026-05-08 08:59 777K
20260508T06Z_MSC_RDPS_WindV_IsbL-1015_RLatLon0.09_PT066H.grib2 2026-05-08 08:59 818K